Find WHDW 17-01

NORAD ID: 67236 Int'l Des: 2025-311 Owner: ZXW Country: CN Constellation: xingwang operational
LEOCIRCULAR

Live-Position

3D-Globus wird geladen...

Über WHDW 17-01

Beschreibung wird geladen...

Nächste Überflüge

Passes for default location (London). Set your location on the main map for personalized predictions.

Höhenverlauf

Loading altitude history...

Zweizeiliger Elementsatz

1 67236U 25311A 26137.66388519 -.00000068 00000-0 12004-3 0 9996
2 67236 50.0078 225.0113 0000928 219.5751 140.5054 13.29322161 19288
Epoch: 17. Mai 2026 • Age: 12 hours

Aktueller Status

Höhe 1148.7 km
Geschwindigkeit 7.28 km/s
Subsatellitenpunkt 7.20°N, 107.17°E
Startdatum 25. Dez. 2025
Alter 0.3 years
Typ other

Technische Details

Klassifizierung Payload
Masse 700.00 kg
Trockenmasse 700.00 kg
Gesamtmasse 700.00 kg
Länge 3.00 m
Durchmesser 1.00 m
Spannweite 10.00 m
Form Box + 2 Pan
Hersteller CAST
Bus-Typ Xingwang C
Phasenstatus In Orbit
Besitzer/Staat ZXW/CN

Most Searched